www.pogodaiklimat.ru

Погода и климат >> Архив погоды >> Филиппины >> Хинатуан


ПОГОДА в Хинатуане

  • Прогноз погоды в Хинатуане
  • Монитор погоды в Хинатуане

АРХИВ ПОГОДЫ в Хинатуане

Время (UTC), дата Ветер
(напр.,м/с)
 
Видим.   Явления Облачность Т
(С)
Тd
(С)
f
(%)
Тe
(С)
Тes
(С)
Комфортность P
(гПа)
Po
(гПа)
Тmin
(С)
Tmax
(С)
R
(мм)
R24
(мм)
S
(см)
00 17.01 С 3 15 км 8/3 600 м
[Cu med, cong Cs]
+27.2 +23.2 79 +37 +40 очень
душно
1011.8 1011.4 +23.8 27
03 17.01 С 5 15 км 8/5 600 м
[Cu med, cong Cs]
+28.4 +23.6 75 +39 +43 очень
душно
1011.2 1010.8
06 17.01 СВ 3 15 км 9/3 600 м
[Cu med, cong Cs]
+28.4 +23.3 74 +38 +44 очень
душно
1009.3 1008.9
09 17.01 С 2 15 км 8/1 600 м
[Cu med, cong Cs]
+27.8 +22.6 73 +37 +37 очень
душно
1009.8 1009.4
12 17.01 З 2 15 км 9/1 600 м
[Cu med, cong Cs]
+26.0 +23.2 85 +35 +35 очень
душно
1011.9 1011.5 +29.5
18 17.01 З 2 15 км {ливн. осадки} 6/1 600 м
[Cu med, cong Cs]
+23.6 +22.8 95 +31 +31 очень
душно
1010.4 1010.0 2
00 18.01 З 1 12 км слаб. ливневой дождь 9/3 540 м
[Cu Sc Ac As]
+24.4 +23.2 93 +33 +34 очень
душно
1012.8 1012.4 +22.3 5
06 18.01 С 4 15 км {ливн. осадки} 9/3 570 м
[Cu Sc Ac As]
+28.2 +22.9 73 +38 +40 очень
душно
1009.6 1009.2 0.8
09 18.01 С 2 15 км 9/1 600 м
[Cu med, cong Ac As]
+27.0 +22.9 78 +36 +36 очень
душно
1009.8 1009.4
12 18.01 З 1 15 км в посл. час ливневой дождь 5/5 600 м
[Cu med, cong Cs]
+25.2 +23.0 88 +34 +34 очень
душно
1011.6 1011.2 +28.8 0.4
15 18.01 С 6 15 км в посл. час ливневой дождь 9/3 600 м
[Cu med, cong Cs]
+24.7 +22.5 88 +32 +32 очень
душно
1012.9 1012.5
18 18.01 СЗ 4 15 км {ливн. осадки} 10/3 600 м
[Cu med, cong Ac As]
+24.4 +22.5 89 +32 +32 очень
душно
1010.5 1010.1 5
21 18.01 З 1 15 км 10/3 600 м
[Cu med, cong Ac As]
+24.0 +22.1 89 +31 +31 очень
душно
1010.0 1009.6
00 19.01 З 2 12 км осадки на расстоянии {ливн. осадки} 9/3 540 м
[Cb cap Ac As]
+24.0 +22.8 93 +32 +33 очень
душно
1011.8 1011.4 +23.0 7
03 19.01 С 2 12 км в посл. час дождь {ливн. осадки} 10/3 570 м
[Cu Sc Ac As]
+26.2 +24.3 89 +36 +40 очень
душно
1011.8 1011.4
06 19.01 С 2 8000 м слаб. дождь 10/3 540 м
[Sc As op]
+25.4 +23.9 91 +35 +36 очень
душно
1009.0 1008.6 13
09 19.01 СЗ 4 5000 м сильн. дождь 10/5 480 м
[Sc As op]
+24.8 +24.3 97 +34 +34 очень
душно
1009.2 1008.8
12 19.01 З 2 12 км {дождь} 10/3 570 м
[Cu Sc Ac As]
+24.6 +23.8 95 +33 +33 очень
душно
1009.2 1008.8 +27.4 33
15 19.01 З 2 10 км слаб. ливневой дождь 10/5 540 м
[Sc Ac As]
+23.0 +22.6 98 +32 +32 очень
душно
1009.3 1008.9
18 19.01 З 1 8000 м слаб. дождь 10/4 540 м
[Sc As op]
+23.9 +23.5 98 +32 +32 очень
душно
1007.2 1006.8 8
21 19.01 З 1 500 м сильн. дождь 10/5 450 м
[Sc As op]
+24.2 +24.0 99 +33 +33 очень
душно
1006.2 1005.8
00 20.01 З 2 8000 м слаб. дождь 10/4 540 м
[Sc As op]
+24.3 +23.6 96 +33 +34 очень
душно
1008.2 1007.8 +23.0 114
03 20.01 СЗ 2 8000 м слаб. дождь 10/4 540 м
[Sc As op]
+24.7 +24.3 98 +34 +36 очень
душно
1007.4 1007.0
06 20.01 З 2 8000 м слаб. дождь 10/3 540 м
[Sc As op]
+25.0 +24.3 96 +35 +36 очень
душно
1005.3 1004.9 22
09 20.01 З 2 15 км {ливн. осадки} 10/4 600 м
[Sc Ac As]
+26.0 +24.4 91 +36 +36 очень
душно
1005.6 1005.2
12 20.01 З 2 15 км {ливн. осадки, дождь} 10/3 570 м
[Cu Sc Ac As]
+25.3 +24.0 93 +35 +35 очень
душно
1007.0 1006.6 +26.6 0.3
15 20.01 ЮЗ 1 15 км {ливн. осадки} 10/1 600 м
[Cu Sc Ac As]
+24.8 +23.4 92 +33 +33 очень
душно
1006.9 1006.5
18 20.01 штиль 0 15 км {ливн. осадки} 9/1 600 м
[Cu med, cong Ac As]
+24.3 +23.4 95 +33 +33 очень
душно
1005.9 1005.5
21 20.01 штиль 0 15 км 10/1 600 м
[Cu med, cong Ac As]
+24.3 +23.2 94 +33 +33 очень
душно
1005.6 1005.2
00 21.01 штиль 0 15 км 10/1 600 м
[Cu med, cong Ac As]
+25.8 +24.0 90 +36 +38 очень
душно
1007.8 1007.4 +23.5 22
03 21.01 З 1 15 км 9/3 600 м
[Cu med, cong Ac As]
+29.7 +23.7 70 +41 +46 опасность
перегрева
1007.1 1006.7
06 21.01 В 3 15 км {ливн. осадки} 8/3 570 м
[Cu Sc Ac As]
+28.8 +25.9 84 +43 +46 опасность
перегрева
1005.4 1005.0 4
09 21.01 В 1 15 км {ливн. осадки} 9/1 600 м
[Cu Sc Ac As]
+28.3 +26.1 88 +43 +43 опасность
перегрева
1005.4 1005.0
12 21.01 С 1 6000 м ливневой дождь 10/4 500 м
[Cu Sc Ac As]
+26.6 +25.8 95 +39 +39 очень
душно
1007.7 1007.3 +30.6 8
15 21.01 З 2 8000 м гроза, ливневой дождь 10/3 480 м
[Cb cap Ac As]
+25.2 +24.4 95 +35 +35 очень
душно
1008.5 1008.1
18 21.01 З 1 4800 м слаб. ливневой дождь {гроза} 10/3 480 м
[Cb cap Ac As]
+25.0 +23.6 92 +34 +34 очень
душно
1007.6 1007.2 12
21 21.01 штиль 0 8000 м слаб. дождь 10/3 480 м
[Cb cap Ac As]
+25.0 +23.1 89 +33 +33 очень
душно
1007.5 1007.1
00 22.01 З 1 15 км {ливн. осадки, дождь} 10/3 570 м
[Cu Sc Ac As]
+25.8 +24.7 94 +37 +38 очень
душно
1009.3 1008.9 +24.5 28
03 22.01 В 4 15 км 8/3 570 м
[Cu Sc Ac As]
+27.7 +24.6 83
06 22.01 С 1 15 км 9/1 600 м
[Cu med, cong Ac As]
+27.7 +24.8 84 +39 +44 очень
душно
1005.8 1005.4
09 22.01 штиль 0 15 км 9/1 600 м
[Cu med, cong Ac As]
+27.2 +25.1 88 +39 +39 очень
душно
1006.6 1006.2
12 22.01 штиль 0 15 км 9/1 600 м
[Cu med, cong Ac As]
+26.8 +24.9 89 +38 +38 очень
душно
1008.1 1007.7 +29.7
15 22.01 штиль 0 15 км 9/1 600 м
[Cu med, cong Ac As]
+26.4 +24.4 89 +37 +37 очень
душно
1008.2 1007.8
18 22.01 С 1 15 км 9/1 600 м
[Cu med, cong Ac As]
+25.0 +23.6 92 +34 +34 очень
душно
1007.8 1007.4
21 22.01 штиль 0 15 км 9/3 600 м
[Cu med, cong Ac As]
+24.6 +23.1 91 +33 +33 очень
душно
1007.8 1007.4
00 23.01 штиль 0 15 км 6/1 600 м
[Cu med, cong Ac As]
+26.4 +25.6 95 +39 +43 очень
душно
1009.8 1009.4 +24.4
03 23.01 В 2 15 км 8/3 570 м
[Cu med, cong Ac trans]
+30.0 +25.8 78 +45 +51 опасность
перегрева
1008.9 1008.5
06 23.01 В 4 15 км 5/3 570 м
[Cb cap Cc]
+29.4 +24.1 73 +41 +46 опасность
перегрева
1006.6 1006.2
09 23.01 В 5 15 км 4/1 570 м
[Cb cap Ac As Ci fib]
+27.8 +24.6 83 +39 +40 очень
душно
1007.4 1007.0
12 23.01 В 5 15 км 6/3 600 м
[Cu med, cong Ac As Ci fib]
+27.6 +24.4 83 +39 +39 очень
душно
1009.0 1008.6 +30.2
15 23.01 В 5 15 км 8/3 600 м
[Cu med, cong Ac As]
+27.4 +25.8 91 +41 +41 опасность
перегрева
1009.7 1009.3
18 23.01 штиль 0 15 км {ливн. осадки} 9/3 600 м
[Cu med, cong Ac As]
+25.6 +24.5 94 +36 +36 очень
душно
1008.6 1008.2 0.8

 

Местоположение метеостанции Хинатуан (Филиппины): широта 8.37 долгота 126.33 высота над уровнем моря 3 м.

В архиве по умолчанию представлена погода в Хинатуане за последнюю неделю. Архивные данные за месяц целиком и за предыдущие месяцы, начиная с января 2011 года, Вы можете получить, выбрав интересующий диапазон дат из раскрывающегося списка и нажав кнопку "Ввод!".


*Определитесь, кто Вы:
робот инопланетянин человек

Внимание! Время в таблицах - всемирное. Для получения местного времени необходимо прибавить поправку, которая равна 8 ч.

Смотрите также архив погоды в соседних городах и на ближайших метеорологических станциях:

Погода в Бутуане (Филиппины) (110 км)
Погода в Малайбалае (Филиппины) (140 км)
Погода в Давао (Филиппины) (158 км)
Погода в Серигао Сити (Филиппины) (183 км)
Погода в Кагаян-де-Оро (Филиппины) (226 км)
Погода в Маасине (Филиппины) (256 км)
Погода в Котобато (Филиппины) (268 км)
Погода в Генерал-Сантосе (Филиппины) (281 км)
Погода в Гуиуане (Филиппины) (303 км)
Погода в Тагбиларане (Филиппины) (305 км)

Пояснения к столбцам:

Ветер - указаны скорость ветра в м/с - средняя за 10 мин, порывы в срок и между сроками (в фигурных скобках) и направление, откуда дует ветер: С - северный, СВ - северо-восточный, В - восточный, ЮВ - юго-восточный, Ю - южный, ЮЗ - юго-западный, З - западный, СЗ - северо-западный.
Видимость - горизонтальная дальность видимости в метрах или километрах. При видимости от 1 до 10 км при отсутствии осадков обычно наблюдается дымка, при ухудшении видимости до 1 км и менее - туман. В сухую погоду видимость может ухудшаться дымом, пылью или мглою.
Явления - указаны атмосферные явления, наблюдавшиеся в срок или в последний час перед сроком; фигурными скобками обозначены явления, наблюдавшиеся между сроками (за 1-3 часа до срока); квадратными скобками обозначены град или гололедные отложения с указанием их диаметра в мм.
Облачность - указаны через наклонную черту общая и нижняя облачность в баллах и высота нижней границы облаков в метрах; квадратными скобками обозначены формы облаков: Ci - перистые, Cs - перисто-слоистые, Cc - перисто-кучевые, Ac - высококучевые, As - высокослоистые, Sc - слоисто-кучевые, Ns - слоисто-дождевые, Cu - кучевые, Cb - кучево-дождевые. Подробнее классификацию облаков см. в Атласе облаков (PDF).
T - Температура воздуха - температура, измеренная на высоте 2 м над землей.
Td - Температура точки росы - температура, при понижении до которой содержащийся в воздухе водяной пар достигнет насыщения.
f - Относительная влажность воздуха - влажноcть воздуха, измеренная на высоте 2 м над землей.
Te - Эффективная температура - температура, которую ощущает одетый по сезону человек в тени. Характеристика душности погоды. При расчете учитывается влияние влажности воздуха и скорости ветра на теплоощущения человека.
Tes - Эффективная температура на солнце - температура, которую ощущает человек, с поправкой на солнечный нагрев. Характеристика знойности погоды. Зависит от высоты солнца над горизонтом, облачности и скорости ветра. Ночью, в пасмурную погоду, а также при ветре 12 м/с и более поправка равна нулю.
P - Атмосферное давление - приведенное к уровню моря атмосферное давление.
Po - Атмосферное давление - измеренное на уровне метеостанции атмосферное давление.
Tmin - Минимальная температура - минимум температуры воздуха на высоте 2 м над землей.
Tmax - Максимальная температура - максимум температуры воздуха на высоте 2 м над землей.
R - Количество осадков - Количество выпавших осадков за период времени, мм. При наведении курсора мыши на число - период времени, за который выпало указанное количество осадков.
R24 - Количество осадков - Количество выпавших осадков за 24 часа, мм.
S - Снежный покров - Высота снежного покрова, см. При наведении курсора мыши на число - состояние снежного покрова и степень покрытия местности в баллах.